www.pogodaiklimat.ru

Погода и климат >> Архив погоды >> Индия >> Гуджарат >> Оха


ПОГОДА в Охе

  • Прогноз погоды в Охе
  • Монитор погоды в Охе

АРХИВ ПОГОДЫ в Охе

Время (UTC), дата Ветер
(напр.,м/с)
 
Видим.   Явления Облачность Т
(С)
Тd
(С)
f
(%)
Тe
(С)
Тes
(С)
Комфортность P
(гПа)
Po
(гПа)
Тmin
(С)
Tmax
(С)
R
(мм)
R24
(мм)
S
(см)
03 20.05 СЗ 2 4000 м 5/5 600 м
[Cu Sc]
+29.8 0.0 15 +27 +30 жарко 1011.3 1010.5 +27.4
06 20.05 СЗ 2 4000 м 6/6 600 м
[Cu Sc]
+32.6 0.0 12 +29 +37 жарко 1012.0 1011.2
09 20.05 З 3 4000 м 4/4 600 м
[Cu Sc]
+33.0 0.0 12 +30 +39 жарко 1010.6 1009.8
12 20.05 З 3 4000 м 4/0
[Ci fib]
+31.8 0.0 13 +29 +32 жарко 1008.8 1008.0 +33.4
15 20.05 СЗ 2 4000 м 4/4 600 м
[Sc]
+29.6 +27.1 86 +47 +47 опасность
перегрева
1009.5 1008.7
18 20.05 СЗ 3 4000 м 4/4 600 м
[Sc]
+29.0 +26.5 86 +44 +44 опасность
перегрева
1010.3 1009.5
21 20.05 СЗ 3 4000 м 5/5 600 м
[Sc]
+28.4 +26.4 89 +43 +43 опасность
перегрева
1009.1 1008.3
00 21.05 З 2 4000 м 5/5 600 м
[Cu Sc]
+28.4 +26.2 88 +43 +43 опасность
перегрева
1009.2 1008.4
03 21.05 СЗ 3 4000 м 4/3
[Sc Ci fib]
+30.0 0.0 14 +27 +30 жарко 1010.2 1009.4 +27.5
06 21.05 СЗ 3 4000 м 1/1 600 м
[Sc]
+32.2 0.0 13 +29 +45 жарко 1011.2 1010.4
09 21.05 З 3 4000 м 5/3 600 м
[Sc Ci fib]
+32.8 0.0 12 +29 +40 жарко 1010.0 1009.2
12 21.05 З 3 4000 м 1/0
[Ci fib]
+32.0 0.0 13 +29 +32 жарко 1008.3 1007.5 +33.4
15 21.05 З 2 4000 м 3/3 600 м
[Sc]
+29.4 +26.3 83 +45 +45 опасность
перегрева
1008.8 1008.0
18 21.05 СЗ 2 4000 м 4/4 600 м
[Cu Sc]
+29.0 +26.2 85 +44 +44 опасность
перегрева
1010.1 1009.3
21 21.05 СЗ 2 4000 м 4/4 600 м
[Cu Sc]
+28.4 +25.3 83 +41 +41 опасность
перегрева
1008.8 1008.0
00 22.05 СЗ 2 4000 м 4/4 600 м
[Cu Sc]
+28.2 +25.7 86 +42 +42 опасность
перегрева
1008.5 1007.7
03 22.05 СЗ 3 4000 м 4/4 600 м
[Cu Sc]
+30.4 0.0 14 +27 +30 жарко 1009.5 1008.7 +27.6
06 22.05 З 3 4000 м 4/4 600 м
[Sc]
+32.2 0.0 13 +29 +39 жарко 1009.9 1009.1
09 22.05 З 2 4000 м 5/5 600 м
[Sc]
+33.0 0.0 12 +30 +39 жарко 1008.5 1007.7
12 22.05 ЮЗ 3 4000 м 8/8 600 м
[Cu Sc]
+32.0 0.0 13 +29 +30 жарко 1006.6 1005.8 +33.8
15 22.05 СЗ 2 4000 м ясно +29.6 +26.8 85 +46 +46 опасность
перегрева
1007.3 1006.5
18 22.05 З 3 4000 м 4/4 600 м
[Sc]
+29.2 +26.4 85 +45 +45 опасность
перегрева
1008.7 1007.9
21 22.05 З 3 4000 м 3/3 600 м
[Sc]
+28.8 +26.6 88 +45 +45 опасность
перегрева
1006.9 1006.1
00 23.05 З 2 4000 м ясно +29.6 +26.2 82 +45 +45 опасность
перегрева
1006.6 1005.8
03 23.05 З 1 4000 м 1/1 600 м
[Sc]
+30.0 0.0 14 +27 +33 жарко 1008.1 1007.3 +28.8
06 23.05 З 3 4000 м 3/3 600 м
[Sc]
+32.2 0.0 13 +29 +40 жарко 1008.7 1007.9
09 23.05 З 3 4000 м ясно +32.4 0.0 13 +29 +45 жарко 1007.7 1006.9
12 23.05 З 4 4000 м ясно +31.6 0.0 13 +28 +31 жарко 1006.5 1005.7 +32.9
15 23.05 З 3 4000 м 3/3 600 м
[Sc]
+29.4 +26.6 85 +45 +45 опасность
перегрева
1007.0 1006.2
18 23.05 З 3 4000 м 4/4 600 м
[Sc]
+29.0 +26.5 86 +44 +44 опасность
перегрева
1007.3 1006.5
21 23.05 З 3 4000 м 3/3 600 м
[Sc]
+28.8 +26.6 88 +45 +45 опасность
перегрева
1007.4 1006.6
00 24.05 С 3 4000 м ясно +28.8 +26.6 88 +45 +45 опасность
перегрева
1008.2 1007.4
03 24.05 З 2 4000 м 3/3 600 м
[Cu Sc]
+30.4 0.0 14 +27 +32 жарко 1009.7 1008.9 +28.8
06 24.05 З 2 4000 м 1/1 600 м
[Sc]
+33.0 0.0 12 +30 +47 жарко 1010.1 1009.3
09 24.05 З 2 4000 м 1/1 600 м
[Sc]
+32.8 0.0 12 +29 +46 жарко 1009.0 1008.2
12 24.05 З 3 4000 м ясно +32.4 0.0 13 +29 +33 жарко 1007.8 1007.0 +33.2
15 24.05 З 2 4000 м 1/1 600 м
[Sc]
+29.6 +26.2 82 +45 +45 опасность
перегрева
1008.7 1007.9
18 24.05 З 3 4000 м 1/1 600 м
[Sc]
+29.0 +25.9 83 +43 +43 опасность
перегрева
1009.1 1008.3
21 24.05 З 2 4000 м 3/3 600 м
[Sc]
+28.2 +24.8 82 +40 +40 очень
душно
1007.9 1007.1
00 25.05 З 2 4000 м 1/1 600 м
[Sc]
+28.2 +25.1 83 +41 +41 опасность
перегрева
1008.1 1007.3
03 25.05 З 2 4000 м 1/1 600 м
[Sc]
+29.8 0.0 15 +27 +32 жарко 1009.9 1009.1 +27.1
06 25.05 З 3 4000 м 6/6 600 м
[Sc]
+32.4 0.0 13 +29 +36 жарко 1009.8 1009.0
09 25.05 З 3 4000 м ясно +33.0 0.0 12 +30 +47 жарко 1007.6 1006.8
12 25.05 З 3 4000 м 3/3 600 м
[Sc]
+32.2 0.0 13 +29 +32 жарко 1006.3 1005.5 +33.8
15 25.05 З 3 4000 м 3/3 600 м
[Sc]
+29.8 +26.5 83 +46 +46 опасность
перегрева
1006.5 1005.7
18 25.05 З 3 4000 м 3/3 600 м
[Sc]
+29.0 +26.5 86 +44 +44 опасность
перегрева
1006.8 1006.0
21 25.05 З 3 4000 м 1/1 600 м
[Sc]
+28.4 +26.2 88 +43 +43 опасность
перегрева
1004.6 1003.8
00 26.05 З 3 4000 м 4/4 600 м
[Sc]
+28.4 +25.3 83 +41 +41 опасность
перегрева
1005.7 1004.9
03 26.05 З 3 4000 м 6/6 600 м
[Sc]
+29.8 0.0 15 +27 +29 жарко 1007.8 1007.0 +27.5
06 26.05 З 2 4000 м ясно +31.8 0.0 13 +29 +48 жарко 1008.0 1007.2
09 26.05 З 2 4000 м ясно +32.6 0.0 12 +29 +48 жарко 1006.8 1006.0
12 26.05 З 3 4000 м ясно +32.0 0.0 13 +29 +33 жарко 1005.6 1004.8 +32.9
15 26.05 З 3 4000 м ясно +29.8 +26.2 81 +45 +45 опасность
перегрева
1006.2 1005.4
18 26.05 З 3 4000 м ясно +29.2 +26.4 85 +45 +45 опасность
перегрева
1006.6 1005.8
21 26.05 З 3 4000 м 1/1 600 м
[Sc]
+28.8 +26.6 88 +45 +45 опасность
перегрева
1006.0 1005.2
00 27.05 З 4 4000 м ясно +28.6 +26.1 86 +43 +43 опасность
перегрева
1005.9 1005.1

 

Местоположение метеостанции Оха (Гуджарат, Индия): широта 22.48 долгота 69.12 высота над уровнем моря 7 м.

В архиве по умолчанию представлена погода в Охе за последнюю неделю. Архивные данные за месяц целиком и за предыдущие месяцы, начиная с января 2011 года, Вы можете получить, выбрав интересующий диапазон дат из раскрывающегося списка и нажав кнопку "Ввод!".


*Определитесь, кто Вы:
робот инопланетянин человек

Внимание! Время в таблицах - всемирное. Для получения местного времени необходимо прибавить поправку, которая равна 5.5 ч.

Смотрите также архив погоды в соседних городах и на ближайших метеорологических станциях:

Погода в Дварке (Гуджарат, Индия) (13 км)
Погода в Мандви (Гуджарат, Индия) (41 км)
Погода в Налии (Гуджарат, Индия) (90 км)
Погода в Бхудже (Гуджарат, Индия) (103 км)
Погода в Порбандаре (Гуджарат, Индия) (108 км)
Погода в Кандле (Гуджарат, Индия) (123 км)
Погода в Нью-Кандле (Гуджарат, Индия) (127 км)
Погода в Раджкоте (Гуджарат, Индия) (172 км)
Погода в Веравале (Гуджарат, Индия) (218 км)
Погода в Амрели (Гуджарат, Индия) (238 км)

Пояснения к столбцам:

Ветер - указаны скорость ветра в м/с - средняя за 10 мин, порывы в срок и между сроками (в фигурных скобках) и направление, откуда дует ветер: С - северный, СВ - северо-восточный, В - восточный, ЮВ - юго-восточный, Ю - южный, ЮЗ - юго-западный, З - западный, СЗ - северо-западный.
Видимость - горизонтальная дальность видимости в метрах или километрах. При видимости от 1 до 10 км при отсутствии осадков обычно наблюдается дымка, при ухудшении видимости до 1 км и менее - туман. В сухую погоду видимость может ухудшаться дымом, пылью или мглою.
Явления - указаны атмосферные явления, наблюдавшиеся в срок или в последний час перед сроком; фигурными скобками обозначены явления, наблюдавшиеся между сроками (за 1-3 часа до срока); квадратными скобками обозначены град или гололедные отложения с указанием их диаметра в мм.
Облачность - указаны через наклонную черту общая и нижняя облачность в баллах и высота нижней границы облаков в метрах; квадратными скобками обозначены формы облаков: Ci - перистые, Cs - перисто-слоистые, Cc - перисто-кучевые, Ac - высококучевые, As - высокослоистые, Sc - слоисто-кучевые, Ns - слоисто-дождевые, Cu - кучевые, Cb - кучево-дождевые. Подробнее классификацию облаков см. в Атласе облаков (PDF).
T - Температура воздуха - температура, измеренная на высоте 2 м над землей.
Td - Температура точки росы - температура, при понижении до которой содержащийся в воздухе водяной пар достигнет насыщения.
f - Относительная влажность воздуха - влажноcть воздуха, измеренная на высоте 2 м над землей.
Te - Эффективная температура - температура, которую ощущает одетый по сезону человек в тени. Характеристика душности погоды. При расчете учитывается влияние влажности воздуха и скорости ветра на теплоощущения человека.
Tes - Эффективная температура на солнце - температура, которую ощущает человек, с поправкой на солнечный нагрев. Характеристика знойности погоды. Зависит от высоты солнца над горизонтом, облачности и скорости ветра. Ночью, в пасмурную погоду, а также при ветре 12 м/с и более поправка равна нулю.
P - Атмосферное давление - приведенное к уровню моря атмосферное давление.
Po - Атмосферное давление - измеренное на уровне метеостанции атмосферное давление.
Tmin - Минимальная температура - минимум температуры воздуха на высоте 2 м над землей.
Tmax - Максимальная температура - максимум температуры воздуха на высоте 2 м над землей.
R - Количество осадков - Количество выпавших осадков за период времени, мм. При наведении курсора мыши на число - период времени, за который выпало указанное количество осадков.
R24 - Количество осадков - Количество выпавших осадков за 24 часа, мм.
S - Снежный покров - Высота снежного покрова, см. При наведении курсора мыши на число - состояние снежного покрова и степень покрытия местности в баллах.